Regional Weather Roundup
Issued by NWS Glasgow, MT

Home | Current Version | Previous Version | Text Only | Print | Product List | Glossary On
Versions: 1 2 3 4 5 6 7 8 9 10 11 12 13 14 15 16 17 18 19 20 21 22 23 24 25 26 27 28 29 30 31 32 33 34 35 36 37 38 39 40 41 42 43 44 45 46 47 48 49 50
000
ASUS45 KGGW 222315
RWRGGW
HOURLY REGIONAL WEATHER ROUNDUP FOR NORTHEAST MONTANA
NATIONAL WEATHER SERVICE GLASGOW MONTANA
500 PM MDT THU JUN 22 2017

NOTE: "FAIR" INDICATES FEW OR NO CLOUDS BELOW 12,000 FEET WITH NO
SIGNIFICANT WEATHER AND/OR OBSTRUCTIONS TO VISISBILITY.

NORTHEAST MONTANA


CITY           SKY/WX    TMP DP  RH WIND       PRES   REMARKS
GLASGOW        LGT RAIN  53  47  79 W25G40    30.02R
PLENTYWOOD       N/A     59  47  64 NW31G52     N/A
WOLF POINT     CLOUDY    61  45  55 W29G41    29.98R
JORDAN           N/A     65  34  31 NW30G46   30.04R
WINNETT          N/A     66  25  21 W23G36      N/A
SIDNEY         SUNNY     67  37  33 NW37G48   29.90R
GLENDIVE       SUNNY     69  33  26 NW31G41   29.94R
MALTA            N/A     57  45  64 W17G35      N/A

FORT PECK REPORTS


CITY           SKY/WX    TMP DP  RH WIND       PRES   REMARKS
FORT PECK        N/A     55  47  74 W37G51      N/A
THE PINES        N/A     60  40  47 CALM        N/A

SOUTHEAST MONTANA


CITY           SKY/WX    TMP DP  RH WIND       PRES   REMARKS
BILLINGS       MOSUNNY   72  30  21 N20G35    30.05R
MILES CITY     PTSUNNY   76  24  14 NW21G40   29.96R
BAKER          CLOUDY    69  29  22 NW23G33   29.95S
LIVINGSTON     MOSUNNY   70  29  21 N22G29    30.10R

CENTRAL MONTANA


CITY           SKY/WX    TMP DP  RH WIND       PRES   REMARKS
HAVRE          CLOUDY    58  43  57 W17G28    30.17S
LEWISTOWN      SUNNY     60  35  39 NW20G35   30.16R
GREAT FALLS    SUNNY     62  34  35 N21G29    30.20R
CUT BANK       CLOUDY    58  38  47 N20       30.21S
HELENA         CLOUDY    68  31  25 N14       30.15R
BUTTE          SUNNY     66  22  18 NW15G28   30.17R
BOZEMAN        PTSUNNY   68  25  19 N13G21    30.12R

WESTERN MONTANA


CITY           SKY/WX    TMP DP  RH WIND       PRES   REMARKS
MISSOULA       MOSUNNY   72  33  24 N17G24    30.15S
KALISPELL      NOT AVBL

NORTH DAKOTA


CITY           SKY/WX    TMP DP  RH WIND       PRES   REMARKS
WILLISTON      PTSUNNY   64  44  48 W30G41    29.87R
DICKINSON      PTSUNNY   71  23  16 NW28G40   29.85F
MINOT          CLOUDY    69  37  30 W31G44    29.75S
BISMARCK       PTSUNNY   75  31  19 NW20G35   29.81R

SOUTHERN SASKATCHEWAN


CITY           SKY/WX    TMP DP  RH WIND       PRES   REMARKS
REGINA         LGT RAIN  57  52  82 NW28G40   29.82R
ESTEVAN        LGT RAIN  57  50  77 W25G35    29.79S
SWIFT CURRENT  CLOUDY    50  46  87 NW25G35   30.01R




USA.gov is the U.S. government's official web portal to all federal, state and local government web resources and services.